{"data":{"norad_id":68994,"epoch":"2026-05-25T04:34:55.360128Z","epoch_age_seconds":55206,"freshness":"FRESH","line1":"1 68994U 26100Q   26145.19091852  .00003676  00000+0  36456-3 0  9996","line2":"2 68994  97.7355  43.0930 0002604  64.2525 295.8962 14.92387512  3274","mean_motion":14.92387512,"eccentricity":0.0002604,"inclination_deg":97.7355,"raan_deg":43.093,"arg_perigee_deg":64.2525,"mean_anomaly_deg":295.8962,"bstar":0.00036456,"rev_number":327,"period_min":96.489684376292,"perigee_km":588.67886438358,"apogee_km":592.30812714577,"semimajor_km":6968.6304957647,"source":"CELESTRAK","updated_at":"2026-05-25T13:38:08.810071Z"}}